Simultaneous Nadir Overpasses (SNOs) Predictions

Prediction of SNOs between GOES-14 and AQUA Satellite Orbit:

Table of predicted SNOs for the next 14.0 days since TLE Epoch: 9/4/2020
Index Date Time (GOES-14) GOES-14 Lat,Lon AQUA Lat,Lon Distance(km) Time Diff (sec)
1 09/05/2020 08:41:51 0.38,-104.44 0.76,-106.10 188.98 80
2 09/07/2020 08:27:00 0.39,-104.43 0.10,-103.15 146.04 80
3 09/07/2020 20:48:25 -0.38,-104.52 -1.18,-108.34 434.50 80
4 09/09/2020 08:14:48 0.38,-104.41 -0.51,-100.18 480.95 80
5 09/09/2020 20:36:13 -0.37,-104.51 -0.58,-105.38 99.08 80
6 09/11/2020 20:26:42 -0.37,-104.50 0.09,-102.43 235.85 80
7 09/12/2020 08:47:57 0.36,-104.42 1.00,-107.59 359.18 80
8 09/14/2020 08:35:45 0.35,-104.41 0.39,-104.63 24.91 80
9 09/16/2020 08:20:53 0.35,-104.39 -0.22,-101.67 309.37 80
10 09/16/2020 20:42:18 -0.34,-104.44 -0.85,-106.87 275.27 80
